SES-12 (43488 NORAD) Tracking and Keplerian Element Data

This shows tracking and keplerian element data for the satellite.

Feedback or suggestion? Click here.




ElementValue
Catalog43488
NameSES-12
Epoch Orbit323
Epoch Day112.69910442
Epoch Year2019
RAAN14.0229
Inclination0.0316
Eccentricity0.0001529
Argument of Perigee165.2281
Mean Anonmoly17.882
Mean Motion1.00272315
Decay Rate-2.86E-06
L11 43488U 18049A 19112.69910442 -.00000286 00000-0 00000+0 0 9994
L22 43488 0.0316 14.0229 0001529 165.2281 17.8820 1.00272315 3234

Live tracking and technical data element details for SES-12 (NORAD 43488). SES-12 can be tracked NOW for your location showing map with azimuth and elevation plus other details from your city location.

Track the satellite on the map from your city or location and see movement details for azimuth, elevation, latitude, longitude, range, height, and movement on the map or in text.







IsCatalogInMostPopularTable: catalog: 43488, numindb: 148
Update: records affected: 1



GetName: 43488 SES-12

Hit Count: updated at: Tue, 23 Apr 2019 19:56:21 GMT